This demonstration page uses our WeatherBlox Daily Observations layout. Learn more.

Left ArrowRight Arrow

Hourly Observations for December 22, 2016

Temp ( °F °C ) Dew Point ( °F °C ) Humidity (%) Winds ( mph kmh ) Pressure ( in mb ) Visibility ( mi km ) Precip ( " mm )
12:51 am 00:51 Cloudy with Light Rain 56 13.3 49 9.4 77 77 E 12 19 30.05 1018 10 16 N/A
1:51 am 01:51 Cloudy with Light Rain 54 12.2 51 10.6 90 90 E 9 15 30.04 1017 10 16 0.02 0.51
2:04 am 02:04 Cloudy with Light Rain 54 12.2 51 10.6 90 90 E 8 13 30.09 1019 10 16 0.01 0.25
2:51 am 02:51 Cloudy 55 12.8 51 10.6 87 87 ESE 9 15 30.02 1017 10 16 0.01 0.25
3:20 am 03:20 Cloudy 54 12.2 51 10.6 90 90 E 12 19 30.06 1018 10 16 N/A
3:51 am 03:51 Cloudy with Light Rain 55 12.8 52 11.1 90 90 E 13 20 30.01 1016 10 16 0.01 0.25
4:51 am 04:51 Cloudy 57 13.9 52 11.1 83 83 ESE 13 20 29.96 1015 10 16 N/A
5:51 am 05:51 Cloudy 59 15 52 11.1 78 78 ENE 14 22 29.96 1014 10 16 N/A
6:51 am 06:51 Cloudy with Light Rain 55 12.8 53 11.7 93 93 SSE 7 11 29.99 1016 7 11 N/A
7:51 am 07:51 Mostly Cloudy 57 13.9 53 11.7 87 87 E 12 19 29.97 1015 10 16 0.03 0.76
8:51 am 08:51 Cloudy with Light Rain 56 13.3 54 12.2 93 93 ESE 8 13 29.98 1015 10 16 N/A
9:51 am 09:51 Cloudy 58 14.4 54 12.2 87 87 ESE 7 11 29.99 1016 10 16 N/A
10:32 am 10:32 Cloudy with Rain 57 13.9 54 12.2 90 90 E 10 17 30.00 1016 2 3 0.05 1.27
10:42 am 10:42 Cloudy with Light Rain 57 13.9 55 12.8 93 93 ESE 10 17 30.00 1016 3 5 0.07 1.78
10:51 am 10:51 Cloudy with Light Rain 57 13.9 54 12.2 90 90 E 9 15 30.00 1016 5 8 0.09 2.29
11:06 am 11:06 Cloudy with Rain 56 13.3 54 12.2 93 93 E 12 19 30.00 1016 3 4 0.05 1.27
11:16 am 11:16 Cloudy with Light Rain 56 13.3 54 12.2 93 93 E 10 17 30.00 1016 7 11 0.06 1.52
11:28 am 11:28 Cloudy with Light Rain 57 13.9 55 12.8 93 93 E 12 19 30.00 1016 10 16 0.06 1.52
11:51 am 11:51 Cloudy with Light Rain 58 14.4 55 12.8 90 90 ESE 14 22 29.96 1015 10 16 0.07 1.78
12:51 pm 12:51 Mostly Cloudy 61 16.1 56 13.3 84 84 E 13 20 29.90 1012 10 16 N/A
1:51 pm 13:51 Partly Cloudy 65 18.3 53 11.7 66 66 SE 20 31 29.85 1011 10 16 0.01 0.25
2:51 pm 14:51 Cloudy 64 17.8 54 12.2 70 70 ESE 12 19 29.83 1010 10 16 N/A
3:51 pm 15:51 Cloudy 63 17.2 54 12.2 73 73 SSE 15 24 29.84 1010 10 16 N/A
4:29 pm 16:29 Cloudy with Rain 59 15 56 13.3 90 90 WNW 10 17 29.88 1012 2 2 0.02 0.51
4:32 pm 16:32 Cloudy with Heavy Rain 58 14.4 56 13.3 93 93 WNW 10 17 29.88 1012 1 1 0.07 1.78
4:45 pm 16:45 Cloudy with Light Rain 59 15 55 13 88 88 SW 8 13 29.88 1012 2 3 0.20 5.08
4:51 pm 16:51 Cloudy with Rain 59 15 56 13.3 90 90 W 7 11 29.88 1012 3 5 0.22 5.59
5:21 pm 17:21 Cloudy with Heavy Rain 56 13.3 55 12.8 97 97 NW 5 7 29.91 1013 2 3 0.08 2.03
5:29 pm 17:29 Cloudy with Rain 56 13.3 54 12.2 93 93 NNW 9 15 29.91 1013 3 5 0.11 2.79
5:51 pm 17:51 Cloudy 56 13.3 53 11.7 90 90 NW 12 19 29.89 1012 10 16 0.11 2.79
6:51 pm 18:51 Mostly Cloudy 55 12.8 51 10.6 87 87 N 5 7 29.92 1013 10 16 N/A
7:51 pm 19:51 Cloudy 55 12.8 49 9.4 80 80 NNW 13 20 29.93 1014 10 16 0.01 0.25
8:51 pm 20:51 Partly Cloudy 55 12.8 46 7.8 72 72 NW 13 20 29.95 1014 10 16 0.01 0.25
9:51 pm 21:51 Partly Cloudy 54 12.2 44 6.7 69 69 NW 13 20 29.98 1015 10 16 N/A
10:51 pm 22:51 Mostly Clear 52 11.1 44 6.7 75 75 W 9 15 29.98 1015 10 16 N/A
11:51 pm 23:51 Clear 48 8.9 44 6.7 86 86 WNW 6 9 30.01 1016 10 16 0.01 0.25

Powered by AerisWeather